Regional Weather Roundup
Issued by NWS Kansas City/Pleasant Hill, MO

Home | Current Version | Previous Version | Text Only | Print | Product List | Glossary On
Versions: 1 2 3 4 5 6 7 8 9 10 11 12 13 14 15 16 17 18 19 20 21 22 23 24 25 26 27 28 29 30 31 32 33 34 35 36 37 38 39 40 41 42 43 44 45 46 47 48 49 50
000
ASUS43 KEAX 161410
RWREAX

WEATHER ROUNDUP FOR EASTERN KANSAS AND NORTHWEST MISSOURI
NATIONAL WEATHER SERVICE KANSAS CITY/PLEASANT HILL MO
800 AM CST MON JAN 16 2017

KSZ040-057-103>105-MOZ028-029-037-043-161500-
...KANSAS CITY METROPOLITAN AREA...

CITY           SKY/WX    TMP DP  RH WIND       PRES   REMARKS
K.C. INTL      CLOUDY    36  34  92 E13       29.90F VSB 1/8 WCI  27
K.C. DOWNTOWN  CLOUDY    35  32  88 E9        29.91F WCI  28
LEES SUMMIT    FOG       37  32  82 E12       29.90F VSB 3/4 WCI  29
OLATHE - IXD   FOG       40  40 100 E12       29.86F VSB 3/4 WCI  33
OLATHE - OJC   FOG       37  37 100 E10       29.87F VSB 1/2 WCI  30
LAWRENCE       LGT RAIN  35  35 100 E10       29.88F WCI  27

$$

MOZ001>008-011>017-020>025-030>033-038>040-044>046-053-054-161500-
...NORTHERN AND CENTRAL MISSOURI...

CITY           SKY/WX    TMP DP  RH WIND       PRES   REMARKS
ST. JOSEPH     LGT RAIN  34  34 100 E9        29.94F WCI  27
WARRENSBURG    CLOUDY    41  39  93 NE8       29.90F FOG
WHITEMAN AFB   CLOUDY    43  43 100 E7        29.90S
CLINTON        CLOUDY    46  46 100 SE8       29.90F FOG
SEDALIA        CLOUDY    45  44  97 SE15      29.94F
WARSAW         NOT AVBL
CHILLICOTHE      N/A     34  33  96 VRB6      30.00F WCI  29
KIRKSVILLE     FRZ RAIN  33  33 100 E9        30.05F FOG     WCI  25

$$

MOZ041-047>049-056>058-063>065-088>090-097-161500-
...EASTERN AND SOUTHERN MISSOURI...

CITY           SKY/WX    TMP DP  RH WIND       PRES   REMARKS
ST. LOUIS INTL FOG       41  39  93 E10       30.11S VSB 1/4 WCI  35
SPIRIT OF STL  FOG       40  40 100 E6        30.10F VSB 1/2
COLUMBIA       LGT RAIN  40  40 100 SE15      30.01F WCI  32
JEFFERSON CITY LGT RAIN  41  40  96 E9        30.02F
ROLLA          LGT RAIN  41  41 100 E10       30.00F VSB 3/4 WCI  35
OSAGE BEACH    LGT RAIN  48  46  93 SE7       29.98F
SPRINGFIELD    CLOUDY    50  49  96 S20G25    29.93R
BRANSON        FOG       45  45 100 SE15      29.98S VSB 1/8
JOPLIN         MOCLDY    52  51  97 SE12      29.88R
WEST PLAINS    LGT RAIN  46  45  96 SE10      30.05F VSB 1/2

$$

IAZ060-094-KSZ022-034>040-054-083-096-NEZ052-066-093-161500-
...KANSAS...SOUTHEAST NEBRASKA AND IOWA...

CITY           SKY/WX    TMP DP  RH WIND       PRES   REMARKS
TOPEKA         MIX PCPN  37  34  89 E7        29.86F FOG     WCI  32
MANHATTAN      CLOUDY    34  33  96 NE9       29.85S FOG     WCI  27
EMPORIA        LGT RAIN  43  43 100 E6        29.81S FOG
CHANUTE        CLOUDY    52  50  93 SE10      29.84R
WICHITA        FOG       42  42 100 S9        29.78R VSB 1/2
OMAHA          LGT RAIN  33  29  85 NE9       29.99F FOG     WCI  25
LINCOLN        LGT RAIN  33  32  96 NE10      29.98S FOG     WCI  25
FALLS CITY     RAIN      33  32  96 E9        29.92F WCI  25
LAMONI         MIX PCPN  32  31  96 NE13G21   29.98F FOG     WCI  22
DES MOINES     FRZ RAIN  33  31  92 E8        30.07F FOG     WCI  26

$$




USA.gov is the U.S. government's official web portal to all federal, state and local government web resources and services.